,

(GMT )
Al Udeid

Weather History for KQIR - March, 2013

Change the Weather History Date:

Friday, March 8, 2013

  Actual Average Record
Temperature  
Mean Temperature 64 °F -  
Max Temperature 72 °F - - ()
Min Temperature 55 °F - - ()
Degree Days  
Heating Degree Days 2    
Growing Degree Days 14 (Base 50)    
Moisture  
Dew Point 42 °F    
Average Humidity 48    
Maximum Humidity 67    
Minimum Humidity 31    
Precipitation  
Precipitation 0.00 in - - ()
Sea Level Pressure  
Sea Level Pressure 30.12 in    
Wind  
Wind Speed 12 mph ()    
Max Wind Speed 24 mph    
Max Gust Speed 30 mph    
Visibility 6.2 miles    
Events      
Averages and records for this station are not official NWS values.
T = Trace of Precipitation, MM = Missing Value Source: Averaged Metar Reports

Daily Weather History Graph

Daily Weather History Graph

Search for Another Location

Airport or City:

Trip Planner

Search our weather history database for the weather conditions in past years. The results will help you decide how hot, cold, wet, or windy it might be!

Date:

Astronomy

Mar. 08, 2013 Rise Set
Actual Time 5:51 AM AST 5:40 PM AST
Civil Twilight 5:28 AM AST 6:03 PM AST
Nautical Twilight 5:01 AM AST 6:29 PM AST
Astronomical Twilight 4:35 AM AST 6:56 PM AST
Moon 2:59 AM AST (3/8) 2:25 PM AST (3/8)
Length of Visible Light 12h 35m
Length of Day
11h 49m
Waning Crescent, 14% of the Moon is Illuminated
Mar 8
Waning Crescent
Mar 11
New
Mar 19
First Quarter
Mar 27
Full
Apr 3
Last Quarter

Hourly Weather History & Observations

Time (AST) Temp. Dew Point Humidity Pressure Visibility Wind Dir Wind Speed Gust Speed Precip Events Conditions
12:55 AM 59.4 °F 39.9 °F 49% 30.07 in 5.6 mi NNW 12.7 mph - N/A   Haze
1:55 AM 58.8 °F 37.8 °F 46% 30.07 in 6.2 mi NNW 12.7 mph - N/A   Clear
2:55 AM 57.7 °F 36.9 °F 46% 30.08 in 6.2 mi NNW 10.4 mph - N/A   Clear
3:55 AM 57.0 °F 41.2 °F 55% 30.08 in 6.2 mi NW 11.5 mph - N/A   Clear
4:55 AM 57.0 °F 42.1 °F 57% 30.10 in 6.2 mi NW 11.5 mph - N/A   Clear
5:55 AM 55.9 °F 41.9 °F 59% 30.12 in 6.2 mi NW 9.2 mph - N/A   Clear
6:55 AM 56.7 °F 42.6 °F 59% 30.15 in 6.2 mi NW 8.1 mph - N/A   Clear
7:55 AM 61.7 °F 42.8 °F 50% 30.17 in 6.2 mi NW 15.0 mph - N/A   Clear
8:55 AM 65.5 °F 43.0 °F 44% 30.18 in 6.2 mi NW 19.6 mph - N/A   Clear
9:55 AM 68.2 °F 43.5 °F 41% 30.18 in 6.2 mi NNW 17.3 mph - N/A   Partly Cloudy
10:55 AM 70.3 °F 42.1 °F 36% 30.17 in 6.2 mi NNW 18.4 mph - N/A   Scattered Clouds
11:55 AM 71.4 °F 42.6 °F 35% 30.14 in 6.2 mi NW 23.0 mph 26.5 mph N/A   Partly Cloudy
12:55 PM 72.0 °F 41.0 °F 33% 30.11 in 6.2 mi NW 18.4 mph - N/A   Clear
1:55 PM 72.7 °F 40.3 °F 31% 30.09 in 6.2 mi NNW 24.2 mph 29.9 mph N/A   Clear
2:55 PM 72.7 °F 40.1 °F 31% 30.09 in 6.2 mi NNW 16.1 mph - N/A   Clear
3:55 PM 71.8 °F 42.3 °F 34% 30.09 in 6.2 mi NNW 18.4 mph - N/A   Clear
4:55 PM 68.9 °F 41.2 °F 36% 30.11 in 6.2 mi NNW 16.1 mph - N/A   Clear
5:55 PM 66.0 °F 43.7 °F 44% 30.11 in 6.2 mi NNW 15.0 mph - N/A   Clear
6:55 PM 63.5 °F 44.4 °F 50% 30.12 in 6.2 mi NNW 15.0 mph - N/A   Clear
7:55 PM 62.4 °F 45.9 °F 55% 30.14 in 6.2 mi North 11.5 mph - N/A   Clear
8:55 PM 59.5 °F 45.9 °F 61% 30.14 in 6.2 mi NNW 9.2 mph - N/A   Clear
9:55 PM 59.2 °F 46.0 °F 62% 30.13 in 6.2 mi NNW 9.2 mph - N/A   Clear
10:55 PM 57.4 °F 45.5 °F 65% 30.12 in 6.2 mi NW 8.1 mph - N/A   Clear
11:55 PM 56.3 °F 45.5 °F 67% 30.10 in 6.2 mi NNW 12.7 mph - N/A   Clear